Regional Weather Roundup
Issued by NWS

Home | Current Version | Previous Version | Graphics & Text | Print | Product List | Glossary On
Versions: 1 2 3 4 5 6 7 8 9 10 11 12 13 14 15 16 17 18 19 20 21 22 23 24 25 26 27 28 29 30 31 32 33 34 35 36 37 38 39 40 41 42 43 44 45 46 47 48 49 50
000
ASUS43 KLSX 290007
RWRMO

WEATHER SUMMARY FOR MISSOURI
NATIONAL WEATHER SERVICE SPRINGFIELD MO
700 PM CDT TUE JUL 28 2015

NOTE: "FAIR" INDICATES FEW OR NO CLOUDS BELOW 12,000 FEET WITH NO
       SIGNIFICANT WEATHER AND/OR OBSTRUCTIONS TO VISIBILITY.
       CURRENT SKY AND/OR WEATHER CONDITIONS ARE NOT AVAILABLE FOR
       CHILLICOTHE AND FARMINGTON.

MOZ001>031-035>038-043-044-053-054-290100-
...NORTHERN AND WESTERN MISSOURI...

CITY           SKY/WX    TMP DP  RH WIND       PRES   REMARKS
KANSAS CTY INT MOSUNNY   90  74  59 S15       29.86F HX  99
6HR MIN TEMP:  90; 6HR MAX TEMP:  94;

KANSAS C DTWN  SUNNY     94  69  44 S17G25    29.84F HX  99
6HR MIN TEMP:  94; 6HR MAX TEMP:  97;

LEE`S SUMMIT   SUNNY     92  71  50 SW12      29.88F HX  98
6HR MIN TEMP:  92; 6HR MAX TEMP:  94;

ST JOSEPH      SUNNY     91  77  63 S8        29.84S HX 104
6HR MIN TEMP:  90; 6HR MAX TEMP:  94;

CHILLICOTHE      N/A     92  76  59 S5        29.89R HX 104
6HR MIN TEMP:  92; 6HR MAX TEMP:  94;

KIRKSVILLE     SUNNY     90  76  63 S6        29.93R HX 101
6HR MIN TEMP:  90; 6HR MAX TEMP:  93;


$$
MOZ066>068-077>081-088>096-101>105-290100-
...SOUTHWEST MISSOURI...

CITY           SKY/WX    TMP DP  RH WIND       PRES   REMARKS
SPRINGFIELD    SUNNY     90  72  55 S10       29.95S HX  97
6HR MIN TEMP:  90; 6HR MAX TEMP:  93;

JOPLIN         SUNNY     91  72  53 S13       29.93R HX  98
6HR MIN TEMP:  91; 6HR MAX TEMP:  96;


$$
MOZ032>034-039>042-045>050-055>058-069>072-290100-
...CENTRAL MISSOURI...

CITY           SKY/WX    TMP DP  RH WIND       PRES   REMARKS
COLUMBIA       SUNNY     90  77  65 SW10      29.91F HX 103
6HR MIN TEMP:  89; 6HR MAX TEMP:  93;

JEFFERSON CITY SUNNY     93  74  53 SW6       29.89S HX 103
6HR MIN TEMP:  92; 6HR MAX TEMP:  94;

ROLLA          SUNNY     88  77  69 S6        29.92F HX 100
6HR MIN TEMP:  88; 6HR MAX TEMP:  93;

SEDALIA        SUNNY     92  73  53 S10       29.90F HX 100
6HR MIN TEMP:  92; 6HR MAX TEMP:  96;

WHITEMAN AFB   SUNNY     92  73  53 S15       29.87F HX 101
WARRENSBURG    SUNNY     90  70  51 S8        29.88S HX  95
OSAGE BEACH    SUNNY     91  73  55 S5        29.92S HX 100

$$
MOZ051-052-059>065-290100-
...EAST CENTRAL MISSOURI...

CITY           SKY/WX    TMP DP  RH WIND       PRES   REMARKS
ST LOUIS INTL  CLOUDY    93  75  55 E8        29.90F HX 104
6HR MIN TEMP:  93; 6HR MAX TEMP: 100;

SPIRIT OF STL  PTSUNNY   94  79  61 W3        29.88F HX 111
6HR MIN TEMP:  93; 6HR MAX TEMP:  96;

ST CHARLES     PTSUNNY   90  80  72 SE6       29.88S HX 107
6HR MIN TEMP:  89; 6HR MAX TEMP:  96;


$$
MOZ072>076-082>087-097>100-106>115-290100-
...SOUTH CENTRAL AND SOUTHEAST MISSOURI...

CITY           SKY/WX    TMP DP  RH WIND       PRES   REMARKS
CAPE GIRARDEAU SUNNY     90  79  70 SW6       29.92R HX 106
6HR MIN TEMP:  90; 6HR MAX TEMP:  94;

FARMINGTON     MOSUNNY   86  81  84 CALM      29.97S HX 102
6HR MIN TEMP:  81; 6HR MAX TEMP:  93; 6HR PCP:  0.03;

POPLAR BLUFF   SUNNY     91  79  67 SW5       29.90F HX 107
6HR MIN TEMP:  91; 6HR MAX TEMP:  94;

WEST PLAINS    SUNNY     89  74  60 SW5       29.98F HX  98
6HR MIN TEMP:  89; 6HR MAX TEMP:  93;


$$


USA.gov is the U.S. government's official web portal to all federal, state and local government web resources and services.